Location: Harbor Island
(32.3990°N, 80.4435°W)
Time: 00:41:39
(UTC-04:00)

Daily predictions for brighter satellites

Satellite Brightness Start Highest point End
(mag) Time Altitude Azimuth Time Altitude Azimuth Time Altitude Azimuth
Cosmos 2369 Rocket 3.6 00:09:32 10° NW 00:13:08 32° WNW 00:13:08 32° WNW
Lacrosse 4 Rocket 4.5 00:31:19 11° NW 00:31:19 11° NW 00:31:56 10° NW
COSMOS 2406 4.3 00:32:43 41° NNW 00:32:43 41° NNW 00:36:42 10° N
Terra 4.3 00:35:13 14° WNW 00:35:13 14° WNW 00:36:28 10° NW
CZ-4C R/B 3.8 01:07:59 30° NNE 01:07:59 30° NNE 01:10:49 10° NNE
NOSS 3-2 (A) 4.3 01:16:20 46° N 01:16:20 46° N 01:20:56 10° NNE
Cosmos 1943 Rocket 4.5 01:22:33 10° NW 01:23:46 15° WNW 01:23:46 15° WNW
Cosmos 2344 3.7 01:38:01 69° ENE 01:38:01 69° ENE 01:45:19 10° NNE
USA 215 4.1 01:43:43 10° NE 01:47:54 40° ENE 01:47:54 40° ENE
CZ-2C R/B 4.0 01:50:03 10° N 01:53:23 37° N 01:53:23 37° N
CENTAUR R/B 3.1 02:24:16 52° NE 02:24:16 52° NE 02:29:19 10° NE
Cosmos 1980 Rocket 3.9 02:25:02 10° N 02:29:46 27° ENE 02:31:04 24° E
Cosmos 2082 Rocket 3.4 02:43:09 33° NW 02:43:09 33° NW 02:47:08 10° N
NPP 4.4 02:43:18 10° NNE 02:47:32 47° ENE 02:47:32 47° ENE
Aureole 1 Rocket 4.3 02:45:47 10° N 02:49:23 50° NNE 02:49:23 50° NNE
Cosmos 1697 Rocket 3.2 02:45:46 10° NNW 02:50:19 56° N 02:50:19 56° N
Cosmos 1833 Rocket 3.8 02:56:30 35° NW 02:56:30 35° NW 03:00:40 10° N
Cosmos 1745 Rocket 4.0 02:57:59 80° NNE 02:57:59 80° NNE 03:04:00 10° N
ARIANE 5 R/B 4.2 03:01:07 10° NE 03:05:04 23° E 03:05:27 22° ESE
ATLAS 5 CENTAUR R/B 3.9 03:08:54 18° ESE 03:08:54 18° ESE 03:11:44 10° ENE
Meteor 1-27 4.4 03:02:50 10° N 03:08:08 74° N 03:08:08 74° N
Nadezhda 1 Rocket 4.0 03:05:03 10° N 03:11:11 71° E 03:11:30 70° ESE
H-2A R/B 2.4 03:15:26 83° SE 03:15:26 83° SE 03:31:32 10° E
IRS-1C 4.1 03:19:46 10° NNE 03:24:53 80° NE 03:24:53 80° NE
Cosmos 540 Rocket 4.2 03:22:42 10° NNW 03:26:15 43° NW 03:26:15 43° NW
SL-16 R/B 3.9 03:23:40 10° N 03:28:39 31° ENE 03:33:35 10° SE
USA 215 4.3 03:27:05 10° NNE 03:32:52 35° NW 03:35:15 27° WNW
SL-08 R/B 3.8 03:37:04 51° NW 03:37:04 51° NW 03:40:50 10° NNW
Cosmos 1626 3.5 03:37:58 38° NE 03:37:58 38° NE 03:40:30 10° NNE
Delta 7925 Rocket 4.4 03:36:56 55° S 03:37:01 55° S 03:45:18 10° ESE
Cosmos 1862 Rocket 4.0 03:35:52 10° N 03:40:17 57° E 03:40:18 57° E
Cosmos 332 Rocket 4.4 03:35:59 10° NNW 03:39:28 47° NW 03:39:28 47° NW
Cosmos 2322 Rocket 3.2 03:37:16 10° N 03:42:37 44° ENE 03:47:55 10° SE
Resurs 1-4 Rocket 3.0 03:40:48 10° NNE 03:45:49 42° E 03:47:33 32° SE
Cosmos 1271 Rocket 3.7 03:43:47 10° N 03:46:34 45° NNE 03:46:34 45° NNE
SEDSat Delta rocket 3.9 03:47:10 55° WSW 03:48:49 82° S 03:55:27 10° E
OAO 3 Rocket 3.2 03:56:42 64° NW 03:57:09 70° N 04:01:51 10° ENE
Cosmos 968 Rocket 4.3 03:58:51 34° WNW 03:58:51 34° WNW 04:03:25 10° N
Lacrosse 5 1.8 03:55:45 10° NW 04:00:49 81° NE 04:05:52 10° SE
Cosmos 2181 Rocket 3.9 03:58:14 10° N 04:04:24 85° E 04:07:43 30° S
Spot 4 Rocket 4.3 04:05:55 10° N 04:10:50 47° WNW 04:11:28 45° W
Cosmos 1980 Rocket 3.0 04:08:42 10° NW 04:12:46 32° W 04:12:46 32° W
CENTAUR R/B 4.2 04:11:26 15° WNW 04:14:07 20° NW 04:18:52 10° N
Cosmos 2360 Rocket 4.2 04:09:46 10° N 04:14:34 28° ENE 04:19:20 10° ESE
Cosmos 1538 Rocket 4.2 04:09:48 10° NNW 04:14:49 48° WSW 04:15:04 48° WSW
Cosmos 923 Rocket 4.1 04:13:15 10° NNW 04:18:32 75° ENE 04:23:43 10° SSE
Cosmos 2219 4.2 04:16:24 19° SSE 04:20:00 40° ESE 04:25:20 10° NE
CZ-2D R/B 2.0 04:20:28 10° N 04:25:43 78° WNW 04:27:56 36° SSW
SL-16 R/B 2.5 04:20:11 13° SSE 04:25:50 86° WSW 04:32:08 10° NNW
Cosmos 1680 Rocket 3.7 04:23:32 10° NNW 04:28:44 70° ENE 04:33:54 10° SSE
USA 229 DEB 4.2 04:24:36 23° S 04:28:58 55° ESE 04:35:44 10° NE
USA 229 4.2 04:24:41 22° S 04:29:04 55° ESE 04:35:50 10° NE
Cosmos 371 Rocket 4.2 04:29:00 10° NW 04:32:38 29° W 04:32:38 29° W
H-2A ROCKET BODY 1.5 04:33:12 44° SW 04:33:53 49° S 04:36:19 10° ESE
Cosmos 2074 Rocket 3.9 04:30:38 24° S 04:34:33 84° W 04:40:49 10° N
GMS 1 Rocket 4.5 04:33:53 48° SW 04:34:35 55° S 04:39:11 10° ESE
Cosmos 1346 4.2 04:35:20 33° NW 04:35:20 33° NW 04:37:36 10° N
Cosmos 1703 Rocket 3.4 04:30:34 10° N 04:34:56 88° WSW 04:37:30 24° S
GOES 2 Rocket 4.5 04:36:19 21° S 04:36:42 21° SSE 04:39:55 10° ESE
Cosmos 2184 Rocket 4.0 04:32:55 22° S 04:37:14 83° W 04:43:36 10° N
IRS-1D 4.2 04:37:12 10° N 04:42:09 40° WNW 04:44:11 29° WSW
Cosmos 773 Rocket 4.1 04:37:18 10° NNW 04:42:13 48° WSW 04:45:05 23° SSW
CZ-2D R/B 3.3 04:38:20 10° NNE 04:42:31 89° ESE 04:44:34 29° SSW
Centaur AC-125 4.0 04:43:58 12° SSE 04:43:58 12° SSE 04:45:20 10° ESE
ARIANE 5 R/B 3.4 04:39:41 10° N 04:44:10 32° WNW 04:45:48 26° WSW
Cosmos 1455 3.8 04:41:30 10° NW 04:43:34 20° WNW 04:43:34 20° WNW
Cosmos 2327 Rocket 4.5 04:44:13 23° SSW 04:48:06 64° W 04:54:13 10° N
FALCON 9 R/B 0.8 04:48:00 40° NW 04:48:25 48° N 04:50:51 10° ENE
Cosmos 1833 4.5 04:46:40 27° SW 04:49:40 55° WNW 04:55:18 10° N
Cosmos 304 Rocket 3.7 04:47:24 10° NNW 04:52:15 80° WSW 04:57:03 10° SSE
ATLAS 5 CENTAUR R/B 2.5 04:50:28 26° WSW 04:52:40 41° NW 04:57:30 10° NNE
UNKNOWN OBJECT B 3.3 04:50:10 10° N 04:53:45 41° WNW 04:55:04 30° WSW
MTI 4.3 04:53:54 36° SW 04:54:27 39° W 04:57:37 10° NNW
ISS 0.0 04:52:35 10° N 04:54:32 15° NNE 04:56:28 10° ENE
Cosmos 1898 Rocket 3.5 04:51:32 19° SSW 04:55:18 88° ESE 05:00:30 10° NNE
Cosmos 1892 3.9 04:55:12 10° SSE 04:58:52 42° E 05:02:34 10° NNE
GPS 2-05 Rocket1 3.3 04:58:55 22° W 05:00:51 56° N 05:04:17 10° ENE
Cosmos 2150 Rocket 4.0 05:00:25 18° SSW 05:04:16 72° WNW 05:09:37 10° NNE
CZ-4B R/B 3.1 05:00:24 10° NNE 05:04:25 73° E 05:08:40 10° S
Okean O Rocket 1.7 05:00:47 10° N 05:05:09 59° WNW 05:08:20 18° SSW
Meteor 2-3 Rocket 3.7 05:00:01 11° S 05:05:32 82° W 05:11:21 10° N
Cosmos 1937 Rocket 3.6 05:01:41 12° S 05:06:37 79° ESE 05:11:56 10° NNE
ADEOS II 4.0 05:05:53 10° NE 05:10:22 28° E 05:14:50 10° SSE
Okean 1-7 3.2 05:06:29 10° NNW 05:10:46 53° W 05:15:00 10° S
SL-16 R/B 3.0 05:07:47 10° NW 05:12:37 29° WSW 05:17:24 10° SSW
Cosmos 1933 4.5 05:10:19 10° NW 05:13:38 25° W 05:15:24 18° SW
GP-B 4.3 05:11:27 10° NNE 05:15:42 44° E 05:19:55 10° SSE
CZ-2C R/B 3.8 05:12:33 10° S 05:16:53 54° W 05:21:19 10° NNW
Lacrosse 5 rocket 1.5 05:16:44 10° NW 05:21:12 68° SW 05:25:46 10° SSE
Cosmos 2112 Rocket 4.4 05:17:35 10° NW 05:22:22 39° W 05:27:09 10° SSW
Resurs 1-4 Rocket 3.6 05:21:33 10° NNW 05:25:18 20° WNW 05:28:38 11° WSW
Cosmos 2322 Rocket 3.5 05:22:20 10° NW 05:26:13 19° W 05:30:07 10° SW
Okean-O 2.8 05:23:33 10° NNE 05:27:59 78° E 05:32:25 10° S
SME Rocket 4.4 05:20:59 10° S 05:28:52 48° WSW 05:34:07 10° NNW
SEDSat Delta rocket 4.0 05:28:49 10° W 05:35:35 73° S 05:41:49 10° ESE
Cosmos 1782 3.9 05:32:02 10° N 05:35:56 49° E 05:39:46 10° SSE
BREEZE-M DEB (TANK) 4.0 05:27:10 11° WSW 05:37:23 42° NW 05:40:50 10° NNE
Cosmos 2219 Rocket 4.3 05:33:33 10° N 05:38:32 32° ENE 05:43:29 10° SE
OAO 3 Rocket 3.5 05:36:13 10° WNW 05:40:54 68° N 05:45:38 10° E
Lacrosse 5 3.6 05:41:50 10° W 05:43:07 11° WSW 05:44:24 10° SW
PSLV R/B 3.6 05:39:11 10° NNE 05:43:35 90° ESE 05:47:56 10° SSW
Feng Yun 1-1 Rocket 4.4 05:38:33 10° NNE 05:44:20 86° WNW 05:50:12 10° SSW
Cosmos 2341 Rocket 4.1 05:38:29 10° SSW 05:44:39 60° W 05:50:54 10° N
